Nenana, AK

4:40 AM AKDT on September 25, 2017 (GMT -0800)
Nenana Municipal

Weather History for PANN - September, 2013

Change the Weather History Date:

Monday, September 16, 2013

  Actual Average Record
Temperature  
Mean Temperature 48 °F -  
Max Temperature 59 °F 56 °F 73 °F (1995)
Min Temperature 37 °F 33 °F 32 °F (2010)
Degree Days  
Heating Degree Days 17    
Moisture  
Dew Point 31 °F    
Average Humidity 66    
Maximum Humidity 95    
Minimum Humidity 29    
Precipitation  
Precipitation 0.03 in - - ()
Sea Level Pressure  
Sea Level Pressure 29.80 in    
Wind  
Wind Speed 3 mph (NE)    
Max Wind Speed 13 mph    
Max Gust Speed 20 mph    
Visibility 10 miles    
Events Rain    
Averages and records for this station are not official NWS values.
T = Trace of Precipitation, MM = Missing Value Source: NWS Daily Summary

Daily Weather History Graph

Daily Weather History Graph

Search for Another Location

Airport or City:

Trip Planner

Search our weather history database for the weather conditions in past years. The results will help you decide how hot, cold, wet, or windy it might be!

Date:

Astronomy

Sep. 16, 2013 Rise Set
Actual Time 7:22 AM AKDT 8:17 PM AKDT
Civil Twilight 6:33 AM AKDT 9:06 PM AKDT
Nautical Twilight 5:30 AM AKDT 10:08 PM AKDT
Astronomical Twilight 4:14 AM AKDT 11:22 PM AKDT
Moon 7:07 PM AKDT (9/16) 3:28 AM AKDT (9/16)
Length of Visible Light 14h 33m
Length of Day
12h 54m
Waxing Gibbous, 91% of the Moon is Illuminated
Sep 16
Waxing Gibbous
Sep 19
Full
Sep 26
Last Quarter
Oct 4
New
Oct 11
First Quarter

Hourly Weather History & Observations

Time (AKDT) Temp. Windchill Dew Point Humidity Pressure Visibility Wind Dir Wind Speed Gust Speed Precip Events Conditions
12:53 AM 33.1 °F - 30.0 °F 89% 29.96 in 10.0 mi Calm Calm - N/A   Clear
1:53 AM 32.0 °F - 30.0 °F 92% 29.95 in 10.0 mi Calm Calm - N/A   Clear
2:53 AM 30.9 °F - 28.0 °F 89% 29.93 in 10.0 mi Calm Calm - N/A   Clear
3:53 AM 28.9 °F - 27.0 °F 92% 29.93 in 10.0 mi Calm Calm - N/A   Clear
4:53 AM 28.9 °F - 26.1 °F 89% 29.91 in 10.0 mi Calm Calm - N/A   Clear
5:53 AM 27.0 °F - 25.0 °F 92% 29.90 in 10.0 mi Calm Calm - N/A   Clear
6:53 AM 28.0 °F - 25.0 °F 88% 29.89 in 10.0 mi Calm Calm - N/A   Clear
7:53 AM 28.0 °F - 25.0 °F 88% 29.88 in 10.0 mi Calm Calm - N/A   Clear
8:53 AM 32.0 °F - 30.0 °F 92% 29.87 in 10.0 mi Calm Calm - N/A   Clear
9:53 AM 37.9 °F - 30.0 °F 73% 29.86 in 10.0 mi Calm Calm - N/A   Clear
10:53 AM 43.0 °F - 30.0 °F 60% 29.84 in 10.0 mi Calm Calm - N/A   Clear
11:53 AM 48.0 °F - 28.0 °F 46% 29.82 in 10.0 mi East 9.2 mph 17.3 mph N/A   Clear
12:53 PM 50.0 °F - 27.0 °F 41% 29.81 in 10.0 mi ENE 12.7 mph 17.3 mph N/A   Clear
1:53 PM 51.1 °F - 26.1 °F 38% 29.78 in 10.0 mi East 10.4 mph - N/A   Clear
2:53 PM 54.0 °F - 26.1 °F 34% 29.75 in 10.0 mi East 11.5 mph 19.6 mph N/A   Clear
3:53 PM 55.9 °F - 26.1 °F 32% 29.73 in 10.0 mi NE 6.9 mph - N/A   Clear
4:53 PM 55.9 °F - 25.0 °F 30% 29.72 in 10.0 mi NE 10.4 mph 16.1 mph N/A   Clear
5:53 PM 55.0 °F - 23.0 °F 29% 29.70 in 10.0 mi NNE 8.1 mph - N/A   Clear
6:53 PM 51.1 °F - 27.0 °F 39% 29.70 in 10.0 mi North 10.4 mph - N/A   Clear
7:53 PM 48.9 °F - 26.1 °F 41% 29.72 in 10.0 mi NE 10.4 mph - N/A   Clear
8:53 PM 46.0 °F 42.5 °F 26.1 °F 46% 29.72 in 10.0 mi NNE 6.9 mph 17.3 mph N/A   Clear
9:53 PM 44.1 °F - 26.1 °F 49% 29.72 in 10.0 mi Calm Calm - N/A   Clear
10:53 PM 43.0 °F 37.7 °F 25.0 °F 49% 29.71 in 10.0 mi NNE 9.2 mph - N/A   Clear
11:53 PM 42.1 °F 37.7 °F 25.0 °F 51% 29.71 in 10.0 mi North 6.9 mph - N/A   Clear